Regional Weather Roundup
Issued by NWS

Home | Current Version | Previous Version | Graphics & Text | Print | Product List | Glossary On
Versions: 1 2 3 4 5 6 7 8 9 10 11 12 13 14 15 16 17 18 19 20 21 22 23 24 25 26 27 28 29 30 31 32 33 34 35 36 37 38 39 40 41 42 43 44 45 46 47 48 49 50
840
ASUS43 KMPX 240210
RWRMN
WEATHER ROUNDUP FOR MINNESOTA
NATIONAL WEATHER SERVICE TWIN CITIES/CHANHASSEN MN
900 PM CDT WED AUG 23 2017


NOTE: "FAIR" INDICATES FEW OR NO CLOUDS BELOW 12,000 FEET WITH NO
SIGNIFICANT WEATHER AND/OR OBSTRUCTIONS TO VISIBILITY. N/A MEANS
CURRENT SKY AND/OR WEATHER CONDITIONS ARE NOT AVAILABLE.

MNZ060>063-068>070-240300-
   Twin Cities Metro

CITY           SKY/WX    TMP DP  RH WIND       PRES   REMARKS
TWIN CITIES    FAIR      70  51  51 VRB7      30.04R
ST PAUL        FAIR      66  54  65 SE3       30.05R
CRYSTAL        FAIR      66  50  56 NE5       30.03R
BLAINE         CLEAR     64  55  72 NE5       30.04R
LAKEVILLE      FAIR      57  57 100 CALM      30.04R
EDEN PRAIRIE   FAIR      68  53  58 NE5       30.02R
SOUTH ST PAUL  FAIR      67  52  58 CALM      30.04R
LAKE ELMO      FAIR      61  54  77 NE3       30.06R
$$
MNZ001>005-007-008-013>017-022>024-027-028-240300-
   Northwest Minnesota

CITY           SKY/WX    TMP DP  RH WIND       PRES   REMARKS
BEMIDJI        CLOUDY    54  54 100 NE5       30.11R
HALLOCK        MOCLDY    55  52  88 E6        30.08R
ROSEAU         HAZE      52  46  82 CALM      30.10S VSB<1/4
WARROAD        FAIR      50  46  87 CALM      30.11R
THIEF RVR FALL MOCLDY    54  52  93 E10       30.09R
CROOKSTON      FAIR      54  54 100 E12       30.05
FOSSTON        LGT RAIN  54  52  94 E3        30.09R
DETROIT LAKES  MOCLDY    63  52  67 E15G22    30.07R
MOORHEAD       FAIR      66  54  63 CALM      30.02R
PARK RAPIDS    LGT RAIN  59  53  80 NE8       30.09R
MAHNOMEN       DRIZZLE   56  50  79 NE8       30.10R
$$
MNZ006-009>011-018-025>026-240300-
   North Central Minnesota

CITY           SKY/WX    TMP DP  RH WIND       PRES   REMARKS
BAUDETTE       FAIR      52  50  93 W5        30.10R
FLAG ISLAND    FAIR      57  50  77 CALM      30.09S
INTL FALLS     FAIR      55  50  83 CALM      30.10R
WASKISH        CLOUDY    52  52 100 CALM      30.10R
BIG FORK       LGT RAIN  55  54  94 CALM      30.10F
LONGVILLE      RAIN      55  54  94 CALM      30.11R
GRAND RAPIDS   LGT RAIN  55  54  96 CALM      30.12S
CRANE LAKE     FAIR      48  48 100 CALM      30.11R
ORR            FAIR      52  46  82 CALM      30.08R
COOK           CLOUDY    54  48  82 CALM      30.10R
WALKER         RAIN      55  53  94 CALM      30.10S
$$
MNZ012-019>021-037-240300-
   Northeast Minnesota

CITY           SKY/WX    TMP DP  RH WIND       PRES   REMARKS
DULUTH         LGT RAIN  58  53  84 NW6       30.08R
ELY            FAIR      52  48  87 CALM      30.09R
HIBBING        LGT RAIN  54  51  90 W6        30.09R
EVELETH        FAIR      58  50  77 CALM      30.10R
DULUTH HARBOR  CLOUDY    64  55  72 N5        30.07R
TWO HARBORS    FAIR      61  55  82 CALM      30.06R
GRAND MARAIS     N/A     57  40  52 N6        30.08R
G MARAIS ARPRT FAIR      45  37  76 N3        30.11R
$$
MNZ029>031-032-039>041-046>048-054>057-064-240300-
   West Central Minnesota

CITY           SKY/WX    TMP DP  RH WIND       PRES   REMARKS
FERGUS FALLS   FAIR      66  54  63 E3        30.01S
WHEATON        FAIR      61  55  82 E6        30.01R
MORRIS         FAIR      63  55  77 E8        30.00S
ALEXANDRIA     FAIR      65  54  67 E3        30.05R
ELBOW LAKE     FAIR      67  56  68 SE3       30.03R
WADENA         FAIR      63  52  67 NE7       30.06R
GLENWOOD       FAIR      64  55  72 CALM      30.05R
APPLETON       FAIR      64  55  72 SE6       29.99S
BENSON         FAIR      66  54  63 S5        30.02S
ORTONVILLE     FAIR      64  57  77 MISG      29.99S
MADISON        FAIR      64  57  77 SE5       29.99S
WILLMAR        FAIR      64  57  77 E3        30.04R
$$
MNZ033>034-036-042>043-049>051-058-059-240300-
   Central Minnesota

CITY           SKY/WX    TMP DP  RH WIND       PRES   REMARKS
ST CLOUD       FAIR      65  56  72 E5        30.04R
SAUK CENTRE    FAIR      65  56  73 E3        30.04R
PAYNESVILLE    FAIR      62  57  83 CALM      30.04S
AITKIN         LGT RAIN  55  52  88 N9        30.10R
PINE RIVER     DRIZZLE   54  50  87 NE12      30.13R
BRAINERD       RAIN      60  52  74 NE13      30.08R
STAPLES        CLOUDY    63  48  59 NE5       30.06R
LONG PRAIRIE   FAIR      63  55  77 NE5       30.05R
LITTLE FALLS   MOCLDY    63  52  67 E3        30.05R
LITCHFIELD     FAIR      64  57  77 CALM      30.04R
BUFFALO        FAIR      63  53  71 NE3       30.04S
MAPLE LAKE     FAIR      62  56  79 CALM      30.05R
HUTCHINSON     FAIR      61  58  91 CALM      30.05R
$$
MNZ037-044-045-052-053-240300-
   East Central Minnesota

CITY           SKY/WX    TMP DP  RH WIND       PRES   REMARKS
PRINCETON      FAIR      66  55  68 CALM      30.05R
MORA           FAIR      61  52  72 NE3       30.07S
CAMBRIDGE      FAIR      66  54  63 CALM      30.05R
RUSH CITY      FAIR      62  52  69 NE3       30.06R
MOOSE LAKE     LGT RAIN  57  52  82 N6        30.08R
HINCKLEY       CLOUDY    59  55  88 CALM      30.06S
CLOQUET        LGT RAIN  55  50  82 NW6       30.09R
MCGREGOR       CLOUDY    55  54  94 N7        30.11R
$$
MNZ071>073-080-081-089-090-097-098-240300-
   Southwest Minnesota

CITY           SKY/WX    TMP DP  RH WIND       PRES   REMARKS
MONTEVIDEO     FAIR      63  55  77 SE3       30.01S
GRANITE FALLS  FAIR      68  59  74 E6        30.02S
CANBY          FAIR      64  58  81 CALM      30.01S
REDWOOD FALLS  FAIR      66  54  65 SE6       30.01S
OLIVIA         FAIR      66  55  68 CALM      30.02R
PIPESTONE      MOCLDY    70  61  73 S5        30.02S
WINDOM         FAIR      66  57  72 E3        30.04R
WORTHINGTON    CLOUDY    67  60  78 S5        30.04S HAZE
JACKSON        MOCLDY    64  59  82 CALM      30.05R
TRACY          MOCLDY    67  60  78 S5        30.02S
$$
MNZ065>067-074>077-082>085-091>093-240300-
   South Central Minnesota

CITY           SKY/WX    TMP DP  RH WIND       PRES   REMARKS
MANKATO        FAIR      65  58  78 SE3       30.04R
NEW ULM        FAIR      66  52  59 CALM      30.03R
ST JAMES       CLOUDY    64  57  77 E3        30.04S
FAIRMONT       CLOUDY    67  60  78 CALM      30.04R
GLENCOE        FAIR      64  60  85 CALM      30.03R
FARIBAULT      FAIR      59  57  94 CALM      30.05R
OWATONNA       FAIR      61  57  88 CALM      30.05R
WASECA         FAIR      59  55  88 E3        30.06R
ALBERT LEA     FAIR      63  59  88 CALM      30.05R
$$
MNZ078>079-086>088-094>096-240300-
   Southeast Minnesota

CITY           SKY/WX    TMP DP  RH WIND       PRES   REMARKS
ROCHESTER      FAIR      65  53  65 N5        30.06R
RED WING       FAIR      61  54  77 CALM      30.04R
STANTON        FAIR      60  57  91 CALM      30.03R
DODGE CENTER   FAIR      59  55  88 CALM      30.06R
WINONA         FAIR      61  55  82 CALM      30.05R
AUSTIN         FAIR      63  55  77 CALM      30.05R
PRESTON        FAIR      62  53  72 CALM      30.06R
$$
ABBREVIATIONS USED IN REMARKS
   TC - TEMPERATURES IN CELSIUS
  WCI - WIND CHILL INDEX
   HX - HEAT INDEX
  VSB - VISIBILITY
$$




USA.gov is the U.S. government's official web portal to all federal, state and local government web resources and services.